EZY2DK EGPH-LFMU

Flight info

Callsign EZY2DK
Flight time N/A
Altitude 37000
Route GOSAM DCT FENIK L612 BEBNI/N0447F390 DCT LAKEY DCT HON DCT XAMAB DCT RESMI DCT DISAK DCT DIRMO DCT ETAMO DCT ADEKA DCT MOKDI DCT MEN J27 AFRIC
Aircraft A20N/M-SDE2E3FGHIRWXY/LB1

Departure

Time 2026-04-22 17:51
Airport Edinburgh Airport (EGPH)

Arrival

Time N/A
Airport Béziers Vias airport (LFMU)
Time Latitude Longitude Altitude Speed Heading
2026-04-22 17:18 55.94752 -3.36616 142 ft 0 kts 90°
2026-04-22 17:41 55.94752 -3.36620 142 ft 2 kts 90°
2026-04-22 17:41 55.94753 -3.36646 142 ft 2 kts 93°
2026-04-22 17:41 55.94753 -3.36673 142 ft 2 kts 92°
2026-04-22 17:42 55.94754 -3.36700 142 ft 2 kts 92°
2026-04-22 17:42 55.94754 -3.36726 142 ft 1 kts 92°
2026-04-22 17:42 55.94755 -3.36735 142 ft 0 kts 74°
2026-04-22 17:42 55.94752 -3.36742 142 ft 0 kts 17°
2026-04-22 17:43 55.94748 -3.36743 142 ft 0 kts 337°
2026-04-22 17:43 55.94742 -3.36738 142 ft 0 kts 342°
2026-04-22 17:46 55.94749 -3.36742 142 ft 3 kts 343°
2026-04-22 17:46 55.94782 -3.36771 142 ft 7 kts 340°
2026-04-22 17:46 55.94855 -3.36780 142 ft 11 kts 358°
2026-04-22 17:47 55.94924 -3.36855 142 ft 12 kts 288°
2026-04-22 17:47 55.94886 -3.37017 142 ft 16 kts 239°
2026-04-22 17:47 55.94818 -3.37212 142 ft 19 kts 239°
2026-04-22 17:47 55.94746 -3.37430 142 ft 20 kts 238°
2026-04-22 17:48 55.94696 -3.37578 142 ft 21 kts 239°
2026-04-22 17:48 55.94588 -3.37894 142 ft 23 kts 239°
2026-04-22 17:48 55.94501 -3.38148 142 ft 24 kts 237°
2026-04-22 17:48 55.94412 -3.38407 142 ft 24 kts 239°
2026-04-22 17:49 55.94327 -3.38662 142 ft 21 kts 240°
2026-04-22 17:49 55.94284 -3.38832 142 ft 12 kts 281°
2026-04-22 17:49 55.94352 -3.38936 142 ft 14 kts 333°
2026-04-22 17:49 55.94436 -3.38914 142 ft 11 kts 60°
2026-04-22 17:50 55.94450 -3.38871 142 ft 0 kts 59°
2026-04-22 17:50 55.94451 -3.38869 142 ft 0 kts 59°
2026-04-22 17:50 55.94518 -3.38668 142 ft 51 kts 59°
2026-04-22 17:50 55.94817 -3.37785 142 ft 113 kts 59°
2026-04-22 17:51 55.95317 -3.36319 201 ft 156 kts 60°
2026-04-22 17:51 55.95903 -3.34670 731 ft 161 kts 54°
2026-04-22 17:51 55.96667 -3.33254 1430 ft 162 kts 47°
2026-04-22 17:51 55.97530 -3.31836 1902 ft 178 kts 46°
2026-04-22 17:52 55.98488 -3.30279 2345 ft 196 kts 46°
2026-04-22 17:52 55.99590 -3.28602 2731 ft 221 kts 35°
2026-04-22 17:52 56.01143 -3.27845 3188 ft 250 kts 360°
2026-04-22 17:52 56.02817 -3.28928 3763 ft 271 kts 323°
2026-04-22 17:53 56.03920 -3.31671 4575 ft 279 kts 288°
2026-04-22 17:53 56.04046 -3.35057 5405 ft 279 kts 255°
2026-04-22 17:53 56.03316 -3.38198 6259 ft 278 kts 241°
2026-04-22 17:53 56.02488 -3.41301 7083 ft 282 kts 245°
2026-04-22 17:54 56.01786 -3.44566 7919 ft 286 kts 249°
2026-04-22 17:54 56.01206 -3.47935 8740 ft 289 kts 252°
2026-04-22 17:54 56.00687 -3.51379 9535 ft 291 kts 253°
2026-04-22 17:54 56.00182 -3.54892 10337 ft 294 kts 254°
2026-04-22 17:55 55.99851 -3.57227 10832 ft 296 kts 254°
2026-04-22 17:55 55.99151 -3.62140 11411 ft 316 kts 254°
2026-04-22 17:55 55.98592 -3.66064 11749 ft 334 kts 253°
2026-04-22 17:55 55.98003 -3.70176 12066 ft 351 kts 253°
2026-04-22 17:56 55.97390 -3.74445 12498 ft 362 kts 253°
2026-04-22 17:56 55.96764 -3.78794 13173 ft 366 kts 253°
2026-04-22 17:56 55.96121 -3.83234 13885 ft 368 kts 253°
2026-04-22 17:56 55.95484 -3.87619 14555 ft 371 kts 253°
2026-04-22 17:57 55.94832 -3.92090 15224 ft 373 kts 254°
2026-04-22 17:57 55.94190 -3.96507 15879 ft 375 kts 255°
2026-04-22 17:57 55.93630 -4.01105 16518 ft 377 kts 256°
2026-04-22 17:57 55.92766 -4.05483 17095 ft 378 kts 239°
2026-04-22 17:58 55.91146 -4.09124 17666 ft 377 kts 221°
2026-04-22 17:58 55.88954 -4.11608 18212 ft 379 kts 202°
2026-04-22 17:58 55.86460 -4.13005 18768 ft 381 kts 198°
2026-04-22 17:58 55.83969 -4.14704 19278 ft 384 kts 206°
2026-04-22 17:59 55.81625 -4.16936 19770 ft 387 kts 211°
2026-04-22 17:59 55.79343 -4.19489 20291 ft 390 kts 214°
2026-04-22 17:59 55.77103 -4.22190 20837 ft 391 kts 216°
2026-04-22 17:59 55.74847 -4.24859 21332 ft 393 kts 209°
2026-04-22 18:00 55.73167 -4.26053 21623 ft 398 kts 196°
2026-04-22 18:00 55.69477 -4.26329 22265 ft 406 kts 172°
2026-04-22 18:00 55.66803 -4.24688 22694 ft 415 kts 155°
2026-04-22 18:00 55.64282 -4.22196 23162 ft 418 kts 153°
2026-04-22 18:01 55.61766 -4.19678 23549 ft 422 kts 153°
2026-04-22 18:01 55.59193 -4.17126 23948 ft 425 kts 154°
2026-04-22 18:01 55.56588 -4.14567 24360 ft 428 kts 154°
2026-04-22 18:01 55.54008 -4.12043 24757 ft 431 kts 154°
2026-04-22 18:02 55.51373 -4.09475 25146 ft 434 kts 154°
2026-04-22 18:02 55.48745 -4.06921 25513 ft 437 kts 154°
2026-04-22 18:02 55.46056 -4.04310 25890 ft 440 kts 154°
2026-04-22 18:02 55.43382 -4.01717 26256 ft 442 kts 154°
2026-04-22 18:03 55.40703 -3.99122 26601 ft 445 kts 154°
2026-04-22 18:03 55.37987 -3.96494 26967 ft 446 kts 154°
2026-04-22 18:03 55.35285 -3.93885 27432 ft 446 kts 154°
2026-04-22 18:03 55.32586 -3.91280 27900 ft 445 kts 154°
2026-04-22 18:04 55.29873 -3.88666 28353 ft 444 kts 154°
2026-04-22 18:04 55.27166 -3.86060 28787 ft 444 kts 154°
2026-04-22 18:04 55.24469 -3.83472 29211 ft 443 kts 155°
2026-04-22 18:04 55.21792 -3.80909 29642 ft 442 kts 154°
2026-04-22 18:05 55.19109 -3.78344 30060 ft 442 kts 155°
2026-04-22 18:05 55.16408 -3.75766 30451 ft 442 kts 155°
2026-04-22 18:05 55.13728 -3.73210 30850 ft 442 kts 155°
2026-04-22 18:05 55.11032 -3.70643 31241 ft 441 kts 155°
2026-04-22 18:06 55.08378 -3.68118 31621 ft 440 kts 155°
2026-04-22 18:06 55.05694 -3.65570 32020 ft 439 kts 154°
2026-04-22 18:06 55.03013 -3.63028 32414 ft 438 kts 154°
2026-04-22 18:06 55.00354 -3.60510 32776 ft 437 kts 155°
2026-04-22 18:07 54.97675 -3.58076 33115 ft 435 kts 157°
2026-04-22 18:07 54.94928 -3.55807 33445 ft 434 kts 158°
2026-04-22 18:07 54.92196 -3.53553 33783 ft 433 kts 158°
2026-04-22 18:07 54.89491 -3.51319 34097 ft 432 kts 158°
2026-04-22 18:08 54.86770 -3.49076 34389 ft 432 kts 158°
2026-04-22 18:08 54.84084 -3.46862 34658 ft 432 kts 158°
2026-04-22 18:08 54.81380 -3.44642 34934 ft 431 kts 158°
2026-04-22 18:08 54.78660 -3.42410 35145 ft 430 kts 158°
2026-04-22 18:09 54.75963 -3.40204 35351 ft 429 kts 158°
2026-04-22 18:09 54.73282 -3.38011 35543 ft 429 kts 157°
2026-04-22 18:09 54.70584 -3.35809 35728 ft 429 kts 157°
2026-04-22 18:09 54.67910 -3.33625 35885 ft 429 kts 158°
2026-04-22 18:10 54.65211 -3.31425 36025 ft 429 kts 158°
2026-04-22 18:10 54.62531 -3.29246 36159 ft 430 kts 158°
2026-04-22 18:10 54.59819 -3.27044 36287 ft 431 kts 158°
2026-04-22 18:10 54.57109 -3.24846 36403 ft 432 kts 158°
2026-04-22 18:11 54.54417 -3.22665 36506 ft 432 kts 157°
2026-04-22 18:11 54.51687 -3.20456 36616 ft 433 kts 157°
2026-04-22 18:11 54.48968 -3.18261 36755 ft 433 kts 157°
2026-04-22 18:11 54.46229 -3.16050 36888 ft 434 kts 157°
2026-04-22 18:12 54.43520 -3.13868 37003 ft 435 kts 157°
2026-04-22 18:12 54.40765 -3.11652 37136 ft 435 kts 157°
2026-04-22 18:12 54.38954 -3.10198 37221 ft 436 kts 157°
2026-04-22 18:12 54.35291 -3.07258 37393 ft 437 kts 156°
2026-04-22 18:13 54.32554 -3.05065 37386 ft 438 kts 156°
2026-04-22 18:13 54.27057 -3.00671 37424 ft 438 kts 156°
2026-04-22 18:14 54.21506 -2.96332 37407 ft 438 kts 158°
2026-04-22 18:14 54.15955 -2.92294 37429 ft 439 kts 159°
2026-04-22 18:15 54.10335 -2.88223 37402 ft 439 kts 158°
2026-04-22 18:15 54.04725 -2.84150 37429 ft 439 kts 158°
2026-04-22 18:16 53.99139 -2.80099 37407 ft 439 kts 158°
2026-04-22 18:16 53.93531 -2.76040 37404 ft 439 kts 158°
2026-04-22 18:17 53.87935 -2.72000 37404 ft 440 kts 158°
2026-04-22 18:17 53.82274 -2.67927 37391 ft 440 kts 158°
2026-04-22 18:18 53.76655 -2.63896 37413 ft 440 kts 158°
2026-04-22 18:18 53.71042 -2.59878 37388 ft 441 kts 158°
2026-04-22 18:19 53.65411 -2.55860 37393 ft 441 kts 158°
2026-04-22 18:19 53.59772 -2.51850 37392 ft 441 kts 158°
2026-04-22 18:20 53.54120 -2.47842 37390 ft 441 kts 158°
2026-04-22 18:20 53.48497 -2.43864 37390 ft 442 kts 158°
2026-04-22 18:21 53.42816 -2.39858 37389 ft 442 kts 158°
2026-04-22 18:21 53.37154 -2.35878 37391 ft 442 kts 158°
2026-04-22 18:22 53.31493 -2.31908 37391 ft 443 kts 159°
2026-04-22 18:22 53.25807 -2.27932 37381 ft 443 kts 159°
2026-04-22 18:23 53.20149 -2.23989 37377 ft 443 kts 159°
2026-04-22 18:23 53.14481 -2.20049 37371 ft 444 kts 159°
2026-04-22 18:24 53.05948 -2.14138 37366 ft 444 kts 159°
2026-04-22 18:25 52.97392 -2.08239 37367 ft 445 kts 159°
2026-04-22 18:25 52.91705 -2.04331 37369 ft 445 kts 159°
2026-04-22 18:26 52.83140 -1.98466 37366 ft 445 kts 159°
2026-04-22 18:26 52.77415 -1.94558 37364 ft 446 kts 159°
2026-04-22 18:27 52.71677 -1.90654 37358 ft 446 kts 159°
2026-04-22 18:27 52.65993 -1.86796 37361 ft 446 kts 159°
2026-04-22 18:28 52.60253 -1.82910 37363 ft 447 kts 159°
2026-04-22 18:28 52.54506 -1.79035 37362 ft 448 kts 159°
2026-04-22 18:29 52.48764 -1.75168 37359 ft 448 kts 159°
2026-04-22 18:29 52.43019 -1.71312 37359 ft 448 kts 159°
2026-04-22 18:30 52.34436 -1.65184 37364 ft 449 kts 153°
2026-04-22 18:31 52.29010 -1.60153 37356 ft 449 kts 150°
2026-04-22 18:31 52.23604 -1.55051 37348 ft 449 kts 150°
2026-04-22 18:32 52.18205 -1.49978 37343 ft 450 kts 150°
2026-04-22 18:32 52.12786 -1.44904 37335 ft 451 kts 150°
2026-04-22 18:33 52.07376 -1.39853 37332 ft 451 kts 150°
2026-04-22 18:33 52.01945 -1.34794 37334 ft 451 kts 151°